TimeCST,TemperatureF,Dew PointF,Humidity,Sea Level PressureIn,VisibilityMPH,Wind Direction,Wind SpeedMPH,Gust SpeedMPH,PrecipitationIn,Events,Conditions,WindDirDegrees,DateUTC
12:19 AM,53.6,53.6,100,30.01,0.2,WSW,3.5,-,N/A,Fog,Fog,250,2014-01-21 06:19:00
12:32 AM,55.4,53.6,94,30.01,0.5,WSW,4.6,-,N/A,Fog,Fog,250,2014-01-21 06:32:00
12:42 AM,55.4,53.6,94,30.01,0.8,Calm,Calm,-,N/A,,Overcast,0,2014-01-21 06:42:00
12:53 AM,55.0,54.0,96,30.01,0.5,Calm,Calm,-,N/A,Fog,Fog,0,2014-01-21 06:53:00
1:06 AM,55.4,53.6,94,30.01,0.2,Calm,Calm,-,N/A,Fog,Fog,0,2014-01-21 07:06:00
1:19 AM,53.6,53.6,100,30.02,0.2,West,4.6,-,N/A,Fog,Fog,270,2014-01-21 07:19:00
1:26 AM,55.4,55.4,100,30.02,0.5,West,3.5,-,N/A,Fog,Fog,280,2014-01-21 07:26:00
1:39 AM,57.2,55.4,94,30.03,1.0,WNW,4.6,-,N/A,,Overcast,290,2014-01-21 07:39:00
1:44 AM,57.2,55.4,94,30.03,2.0,West,5.8,-,N/A,,Overcast,280,2014-01-21 07:44:00
1:53 AM,57.9,57.0,97,30.03,5.0,West,4.6,-,N/A,,Mostly Cloudy,280,2014-01-21 07:53:00
2:08 AM,57.2,55.4,94,30.03,4.0,WNW,4.6,-,N/A,,Scattered Clouds,290,2014-01-21 08:08:00
2:53 AM,57.0,52.0,83,30.05,10.0,North,17.3,25.3,N/A,,Clear,350,2014-01-21 08:53:00
3:53 AM,57.0,42.1,57,30.08,10.0,North,17.3,28.8,N/A,,Clear,360,2014-01-21 09:53:00
4:53 AM,55.0,34.0,45,30.12,10.0,North,17.3,25.3,N/A,,Scattered Clouds,350,2014-01-21 10:53:00
5:53 AM,53.1,28.9,40,30.17,10.0,North,13.8,-,N/A,,Clear,350,2014-01-21 11:53:00
6:53 AM,52.0,25.0,35,30.20,10.0,North,16.1,26.5,N/A,,Clear,360,2014-01-21 12:53:00
7:53 AM,52.0,21.9,31,30.23,10.0,North,16.1,26.5,N/A,,Clear,350,2014-01-21 13:53:00
8:53 AM,54.0,23.0,30,30.25,10.0,North,17.3,27.6,N/A,,Clear,350,2014-01-21 14:53:00
9:53 AM,57.0,21.9,26,30.27,10.0,North,18.4,25.3,N/A,,Clear,360,2014-01-21 15:53:00
10:53 AM,57.9,21.9,25,30.26,10.0,North,20.7,29.9,N/A,,Clear,350,2014-01-21 16:53:00
11:53 AM,60.1,21.0,22,30.24,10.0,North,19.6,29.9,N/A,,Clear,360,2014-01-21 17:53:00
12:53 PM,62.1,23.0,22,30.20,10.0,NNW,13.8,21.9,N/A,,Clear,330,2014-01-21 18:53:00
1:53 PM,63.0,21.9,21,30.19,10.0,NNW,12.7,24.2,N/A,,Partly Cloudy,340,2014-01-21 19:53:00
2:53 PM,62.1,17.1,18,30.19,10.0,North,16.1,24.2,N/A,,Clear,350,2014-01-21 20:53:00
3:53 PM,62.1,17.1,18,30.20,10.0,NNW,18.4,24.2,N/A,,Partly Cloudy,340,2014-01-21 21:53:00
4:53 PM,60.1,19.0,20,30.21,10.0,NNW,12.7,-,N/A,,Clear,330,2014-01-21 22:53:00
5:53 PM,54.0,18.0,24,30.22,10.0,North,10.4,-,N/A,,Clear,350,2014-01-21 23:53:00
6:53 PM,50.0,19.9,31,30.23,10.0,North,6.9,-,N/A,,Clear,350,2014-01-22 00:53:00
7:53 PM,48.0,21.0,34,30.24,10.0,North,10.4,-,N/A,,Clear,350,2014-01-22 01:53:00
8:53 PM,46.0,19.0,34,30.24,10.0,NNW,5.8,-,N/A,,Clear,340,2014-01-22 02:53:00
9:53 PM,43.0,25.0,49,30.24,10.0,NW,3.5,-,N/A,,Clear,310,2014-01-22 03:53:00
10:53 PM,37.9,28.0,68,30.25,10.0,Calm,Calm,-,N/A,,Clear,0,2014-01-22 04:53:00
11:53 PM,37.9,25.0,60,30.26,10.0,Calm,Calm,-,N/A,,Clear,0,2014-01-22 05:53:00